[[{"header":{"parameterUnit":"m.s-1","parameterCategory":1,"la1":30.2991,"la2":30.254,"lo1":-89.0895,"lo2":-89.0444,"dy":0.0017,"dx":0.0017,"nx":28,"ny":28,"refTime":"2024-06-09T03:00:00:Z","depth":0,"parameterNumber":2,"parameterNumberName":"U-component_of_WINDS"},"data":[0,0,0,0,0,0,0,0,0,0,0,0,0,0,0,0,0,0,0,0,0,0,0,0,0,0,0,0,0,0,0,0,0,0,0,0,0,0,0,0,0,0,0,0,0,0,0,0,0,0,0,0,0,0,0,0,0,0,0.64,0.6401,0,0.6479,0.648,0.6481,0.6508,0.6508,0.6508,0.6507,0.6587,0.6589,0.6592,0,0,0,0,0,0,0,0,0,0,0,0,0,0.6272,0.6274,0.64,0.6401,0.6402,0.6479,0.648,0.6481,0.6508,0.6508,0.6508,0.6507,0.6586,0.6589,0.6592,0,0,0,0,0,0,0,0,0,0,0,0,0,0.6337,0.6274,0.64,0.6425,0.6428,0.6479,0.648,0.6481,0.6508,0.6508,0.6508,0.6507,0.6585,0.6589,0.6592,0.6623,0,0,0.6603,0.6605,0,0,0,0,0,0,0,0,0.6333,0.6341,0.642,0.6423,0.6427,0.6483,0.6464,0.6529,0.6509,0.6478,0.6507,0.6507,0.6553,0.6559,0.6575,0.6627,0.6631,0.6604,0.6606,0.6607,0.6608,0,0,0,0,0,0,0,0.6328,0.6338,0.6431,0.6422,0.6426,0.6432,0.644,0.6476,0.6517,0.6481,0.6483,0.6492,0.6555,0.6571,0.6577,0.6632,0.6604,0.6607,0.6609,0.661,0.6712,0.6713,0,0,0,0,0,0,0.632,0.6334,0.6429,0.6434,0.6378,0.6434,0.6444,0.6466,0.6517,0.6524,0.6492,0.6493,0.6565,0.6573,0.658,0.6619,0.6607,0.6611,0.6613,0.6712,0.6713,0.6713,0,0,0,0,0,0,0.6317,0.6328,0.6426,0.6385,0.6397,0.6437,0.6461,0.6468,0.6484,0.6525,0.6532,0.6502,0.6565,0.6575,0.6612,0.6622,0.6612,0.6616,0.6711,0.6712,0.6713,0.6698,0,0,0,0,0,0,0.6313,0.6327,0.634,0.6385,0.64,0.6457,0.6462,0.6469,0.6491,0.6492,0.6536,0.6543,0.6566,0.6607,0.6616,0.6627,0.6618,0.6711,0.6712,0.6713,0.6697,0.6698,0.6698,0,0,0,0,0,0.6308,0.6332,0.634,0.6351,0.6416,0.6458,0.6466,0.6492,0.6491,0.6504,0.653,0.6542,0.6619,0.661,0.6621,0.6633,0.671,0.6711,0.6713,0.6697,0.6698,0.6698,0,0,0,0,0,0,0.6287,0.6339,0.6348,0.6387,0.6418,0.6462,0.6479,0.6492,0.6523,0.6523,0.6554,0.6563,0.6598,0.6619,0.6608,0.6665,0.6665,0.6669,0.665,0.6651,0.6651,0.6645,0.6621,0,0,0,0,0,0.6287,0.6317,0.636,0.639,0.6405,0.6439,0.6459,0.6476,0.6509,0.6522,0.6551,0.6582,0.6613,0.6633,0.6665,0.6701,0.671,0.6714,0.6714,0.6714,0.6717,0.6737,0.6739,0.6717,0.6717,0.6717,0,0,0.6287,0.6319,0.6336,0.6387,0.6413,0.6442,0.645,0.6482,0.6504,0.6526,0.6563,0.6586,0.6622,0.6659,0.6677,0.6678,0.6725,0.6716,0.6716,0.6718,0.6738,0.674,0.6742,0.6718,0.6718,0.6718,0,0,0.6302,0.6329,0.6357,0.6383,0.6422,0.6444,0.6451,0.6493,0.6509,0.6547,0.6564,0.659,0.6644,0.6669,0.6689,0.6712,0.6724,0.6722,0.6724,0.6742,0.6744,0.6746,0.6753,0.6756,0.6724,0.6724,0.6724,0,0.6296,0.6342,0.637,0.64,0.6421,0.6443,0.6471,0.6495,0.6542,0.6556,0.6556,0.6623,0.665,0.6692,0.6698,0.6713,0.6721,0.6717,0.6742,0.6744,0.6746,0.6753,0.6756,0.6723,0.6724,0.6724,0.6724,0,0.6334,0.6365,0.6383,0.6428,0.6451,0.648,0.6511,0.6531,0.6546,0.6568,0.6605,0.6638,0.6675,0.6687,0.6701,0.6731,0.673,0.6736,0.6737,0.6747,0.6754,0.6757,0.6723,0.6723,0.6723,0.6723,0,0,0.6338,0.6397,0.6403,0.6423,0.6467,0.6492,0.6521,0.6558,0.6575,0.6606,0.6631,0.6675,0.6681,0.6703,0.6721,0.6737,0.6752,0.6741,0.6742,0.6741,0.6786,0.6781,0.6784,0.676,0.6761,0.6762,0.6783,0,0.6358,0.6412,0.6437,0.6479,0.6508,0.6529,0.6554,0.6584,0.6605,0.6632,0.6655,0.6686,0.6691,0.6704,0.6722,0.6747,0.6762,0.6746,0.6783,0.6784,0.6773,0.6788,0.6784,0.6802,0.6786,0.6786,0.6787,0,0.6389,0.642,0.6466,0.6506,0.6519,0.6541,0.6577,0.6602,0.6636,0.665,0.6675,0.6691,0.6722,0.6721,0.6763,0.6751,0.6768,0.6783,0.6784,0.6788,0.6786,0.6792,0.6808,0.6811,0.6792,0.6792,0.6791,0,0.6386,0.644,0.6474,0.6491,0.6539,0.6554,0.6574,0.6607,0.6628,0.6658,0.6672,0.6705,0.6724,0.6749,0.6774,0.6771,0.6814,0.6815,0.6826,0.6825,0.6834,0.6833,0.6852,0.6845,0.6845,0.6845,0.6845,0,0.6406,0.6433,0.6473,0.6494,0.6524,0.6552,0.6581,0.6603,0.6632,0.6657,0.6677,0.67,0.6732,0.6758,0.6778,0.681,0.6818,0.683,0.6835,0.6828,0.6826,0.6839,0.6838,0.6846,0.6846,0.6846,0.6846,0,0.6408,0.6437,0.6475,0.6517,0.6528,0.6548,0.6584,0.6605,0.6626,0.6658,0.6666,0.6701,0.6733,0.6761,0.6803,0.6816,0.6849,0.6855,0.6837,0.684,0.685,0.6848,0.6878,0.6883,0.6872,0.6872,0.6872,0,0.6419,0.644,0.6484,0.6502,0.6523,0.6552,0.6573,0.66,0.6621,0.666,0.6676,0.671,0.6738,0.6788,0.6817,0.6849,0.6856,0.6864,0.6861,0.6853,0.6855,0.6854,0.6856,0.6864,0.6864,0.6864,0.6864,0,0.6435,0.6447,0.6477,0.6511,0.6535,0.6563,0.6592,0.6606,0.6639,0.6661,0.6694,0.6716,0.6759,0.6792,0.6827,0.6848,0.6861,0.6865,0.6869,0.6862,0.6851,0.6856,0.6837,0.6864,0.6864,0.6864,0.6864,0.6864,0.6441,0.6461,0.6494,0.6526,0.6551,0.6577,0.6598,0.6622,0.6651,0.6688,0.6703,0.6736,0.6768,0.6817,0.6838,0.6864,0.6866,0.6872,0.6874,0.6875,0.6874,0.6847,0.6871,0.6871,0.6871,0.6871,0.6871,0,0.6457,0.648,0.6509,0.6548,0.6573,0.6584,0.6616,0.6636,0.6665,0.6694,0.6721,0.6759,0.6791,0.6822,0.6855,0.687,0.6877,0.6878,0.6877,0.6881,0.687,0.6863,0.6872,0.6872,0.6872,0.6872,0.6872,0.6872,0.6469,0.6502,0.6518,0.6563,0.6586,0.6619,0.6636,0.666,0.6683,0.6725,0.6751,0.6771,0.68,0.6836,0.6865,0.6873,0.6884,0.6884,0.6893,0.6882,0.6882,0.6882,0.6875,0.6886,0.6886,0.6902,0.6902,0.6902]},{"header":{"parameterUnit":"m.s-1","parameterCategory":1,"la1":30.2991,"la2":30.254,"lo1":-89.0895,"lo2":-89.0444,"dy":0.0017,"dx":0.0017,"nx":28,"ny":28,"refTime":"2024-06-09T03:00:00:Z","depth":0,"parameterNumber":3,"parameterNumberName":"V-component_of_WINDS"},"data":[0,0,0,0,0,0,0,0,0,0,0,0,0,0,0,0,0,0,0,0,0,0,0,0,0,0,0,0,0,0,0,0,0,0,0,0,0,0,0,0,0,0,0,0,0,0,0,0,0,0,0,0,0,0,0,0,0,0,3.7076,3.7077,0,3.7128,3.7128,3.7129,3.7101,3.7099,3.7098,3.7097,3.7145,3.7147,3.715,0,0,0,0,0,0,0,0,0,0,0,0,0,3.6949,3.6951,3.7076,3.7077,3.7078,3.7128,3.7128,3.7129,3.7101,3.7099,3.7098,3.7096,3.7144,3.7147,3.715,0,0,0,0,0,0,0,0,0,0,0,0,0,3.7002,3.6952,3.7076,3.707,3.707,3.7127,3.7128,3.7129,3.7101,3.7099,3.7097,3.7095,3.7143,3.7147,3.715,3.7216,0,0,3.7162,3.7164,0,0,0,0,0,0,0,0,3.6999,3.7007,3.707,3.707,3.707,3.7106,3.7101,3.7158,3.7102,3.7089,3.7097,3.7094,3.7133,3.7138,3.7152,3.7218,3.722,3.7163,3.7165,3.7167,3.7168,0,0,0,0,0,0,0,3.6996,3.7005,3.7096,3.7071,3.7071,3.7063,3.7068,3.7112,3.7122,3.709,3.7088,3.7095,3.7133,3.7148,3.7153,3.7221,3.7162,3.7166,3.7168,3.717,3.7342,3.7344,0,0,0,0,0,0,3.6993,3.7002,3.7095,3.7098,3.7029,3.7067,3.7073,3.7096,3.7122,3.7123,3.7097,3.7093,3.7142,3.7148,3.7154,3.7231,3.7167,3.717,3.7172,3.7339,3.7342,3.7344,0,0,0,0,0,0,3.699,3.7002,3.7093,3.7049,3.706,3.7071,3.7098,3.7099,3.7114,3.7127,3.7128,3.7111,3.7141,3.7149,3.7201,3.7233,3.7172,3.7175,3.7337,3.734,3.7343,3.7387,0,0,0,0,0,0,3.6987,3.7001,3.7027,3.705,3.7063,3.714,3.71,3.7101,3.7121,3.7117,3.714,3.7142,3.714,3.7195,3.7205,3.7237,3.7178,3.7334,3.7338,3.7342,3.7382,3.7391,3.7399,0,0,0,0,0,3.6982,3.7037,3.7029,3.704,3.7096,3.7142,3.7149,3.7147,3.7124,3.7149,3.7157,3.7141,3.7228,3.7201,3.7211,3.7245,3.7332,3.7337,3.7342,3.7379,3.7389,3.7398,0,0,0,0,0,0,3.7016,3.704,3.7031,3.7095,3.7117,3.7137,3.717,3.7159,3.7187,3.7182,3.7177,3.7182,3.7236,3.7246,3.7215,3.7309,3.7276,3.7283,3.73,3.7311,3.7318,3.7314,3.7182,0,0,0,0,0,3.7031,3.7068,3.7086,3.7141,3.7152,3.7159,3.7179,3.7176,3.7198,3.7206,3.7218,3.7238,3.727,3.7291,3.7321,3.7384,3.7387,3.7412,3.742,3.7427,3.7433,3.7465,3.7476,3.7361,3.7361,3.7361,0,0,3.7062,3.708,3.7103,3.7148,3.7164,3.7201,3.7167,3.7207,3.7233,3.7212,3.7262,3.7271,3.7293,3.7351,3.7376,3.736,3.7465,3.7433,3.7438,3.7441,3.7471,3.7482,3.7492,3.7365,3.7364,3.7363,0,0,3.7137,3.7155,3.7202,3.7219,3.7245,3.7249,3.726,3.7282,3.7288,3.7338,3.7322,3.7352,3.7408,3.7424,3.7439,3.7519,3.7504,3.7529,3.757,3.7602,3.7611,3.7619,3.7646,3.7656,3.7535,3.7535,3.7535,0,3.7172,3.7228,3.7227,3.7268,3.7287,3.727,3.7316,3.7333,3.7366,3.7379,3.7361,3.7429,3.7443,3.7503,3.7522,3.7536,3.7547,3.7526,3.761,3.7618,3.7625,3.7651,3.7661,3.7538,3.7538,3.7537,3.7537,0,3.7268,3.7307,3.7342,3.7376,3.7399,3.7442,3.7446,3.7469,3.7463,3.7469,3.7519,3.7535,3.7567,3.7581,3.7576,3.764,3.7629,3.7611,3.7578,3.7639,3.7663,3.7673,3.7542,3.7541,3.754,3.7539,0,0,3.7366,3.7399,3.7411,3.7426,3.7453,3.7482,3.7523,3.7556,3.7575,3.7599,3.7632,3.7679,3.7662,3.7679,3.7675,3.7703,3.7763,3.7681,3.7681,3.7695,3.7833,3.7846,3.7857,3.7754,3.7756,3.7758,3.7831,0,3.7442,3.7517,3.7516,3.7584,3.7619,3.7603,3.7639,3.7658,3.7664,3.7692,3.7698,3.7731,3.7707,3.7717,3.7744,3.775,3.7791,3.7745,3.7783,3.7785,3.7777,3.787,3.7884,3.7952,3.784,3.7842,3.7843,0,3.754,3.7568,3.764,3.766,3.7675,3.7708,3.7736,3.7765,3.7786,3.7788,3.7807,3.7799,3.7839,3.7805,3.7859,3.7829,3.7844,3.7849,3.7852,3.7854,3.7817,3.7874,3.7974,3.7984,3.7858,3.7857,3.7855,0,3.7602,3.7658,3.7707,3.772,3.7746,3.7769,3.778,3.7799,3.7818,3.7843,3.7855,3.7884,3.79,3.7921,3.792,3.7896,3.7975,3.7941,3.7976,3.7976,3.7992,3.7991,3.8095,3.8004,3.8004,3.8004,3.8004,0,3.7686,3.773,3.7735,3.7766,3.7814,3.7812,3.786,3.7868,3.7885,3.7916,3.7903,3.7932,3.7929,3.7957,3.7957,3.8,3.8008,3.8009,3.8008,3.801,3.8009,3.8019,3.8014,3.8007,3.8006,3.8006,3.8005,0,3.7764,3.7769,3.7822,3.7842,3.7848,3.7882,3.7898,3.7926,3.7931,3.797,3.7978,3.7985,3.8018,3.8019,3.8056,3.8055,3.8108,3.8103,3.8102,3.81,3.8134,3.813,3.8247,3.8261,3.8163,3.8164,3.8164,0,3.7816,3.785,3.7874,3.7894,3.7907,3.7939,3.7959,3.7958,3.7978,3.8004,3.8028,3.806,3.8085,3.8137,3.8144,3.8172,3.8166,3.8205,3.817,3.817,3.8165,3.8162,3.8165,3.8211,3.8212,3.8213,3.8214,0,3.7909,3.7909,3.7939,3.7969,3.7993,3.8017,3.8039,3.8055,3.8056,3.808,3.8113,3.8133,3.8171,3.8201,3.8228,3.8238,3.8226,3.8225,3.8234,3.8236,3.8233,3.8233,3.8119,3.8222,3.8221,3.8221,3.822,3.822,3.7974,3.8003,3.8024,3.8057,3.8073,3.8093,3.812,3.8128,3.8157,3.8188,3.8186,3.8222,3.824,3.8275,3.8287,3.8315,3.8301,3.8315,3.8318,3.8321,3.8324,3.823,3.832,3.8319,3.8319,3.8319,3.8319,0,3.8065,3.8077,3.8108,3.8139,3.8164,3.8152,3.8175,3.8196,3.8229,3.8248,3.8273,3.831,3.834,3.8349,3.8377,3.8397,3.8392,3.8405,3.8402,3.8404,3.8335,3.8324,3.8408,3.8408,3.8408,3.8408,3.8408,3.8408,3.8115,3.8162,3.8165,3.822,3.8231,3.8268,3.8282,3.83,3.8315,3.8358,3.8383,3.8389,3.8403,3.8432,3.8458,3.846,3.847,3.8484,3.8484,3.8419,3.841,3.8401,3.839,3.8487,3.8487,3.855,3.8551,3.8551]}]]